Location: Endfield
(51.6667°N, 0.0667°W)
Time: 02:10:34
(UTC+00:00)

Cosmos 1340 - Pass Details

Date: 19 May 2024
Orbit: 432 x 436 km, 81.2° (Epoch: 16 June)

Event Time Altitude Azimuth Distance (km) Brightness Sun altitude
Rises 21:22:53 0° 359° (N) 2,453 7.1 -10.8°
Reaches altitude 10° 21:25:26 10° 19° (NNE) 1,574 5.7 -11.0°
Maximum altitude 21:27:54 18° 65° (ENE) 1,150 4.4 -11.3°
Enters shadow 21:29:55 12° 105° (ESE) 1,438 4.5 -11.5°
